Content
SEND FEEDBACK

Daily
Averages
Monthly
Summary
Canada

MONTREAL, QUEBEC


Home > North America > Canada > Quebec
Elevation: 35 meters     Latitude: 45 28N     Longitude: 073 45W

WEATHER
 
SELECT A DAY
Number of Records: 198,177;   Date Range: 1/1/95 - 7/30/14
 
SHARE

PRINT THIS DATA

[ ← Previous Day ]
WEATHER ALMANAC - 22 FEBRUARY, 2013
[ Next Day → ]
[ °F ]   °C
Weather ElementAverageHighLow
Temperature-3.5 °C0 °C (3:00 pm)-7 °C (6:00 am)
Dewpoint-6.7 °C-4.4 °C (1:00 pm)-9 °C (1:00 am)
Humidity78.1 %86 % (2:00 am)69 % (1:00 pm)
Barometer1028.4 hPa1031.5 hPa (8:00 am)1024 hPa (11:00 pm)
Wind Speed10.6 km/h18.5 km/h (4:00 pm)
Weather ElementAverage
Visibility27.7 km
Wind DirectionSE (135.5 °)

Weather ElementTotal
Precipitation---
Heating Degree Days21.8 (Base 18.3)
Averaged from 29 records on 22 February, 2013
WEATHER CONDITIONS BREAKOUT
WIND DIRECTION BREAKOUT
WEATHER BY HOUR - 22 FEBRUARY, 2013
[ °F ]   °C
Local TimeTemperatureDewpointHumidityBarometerVisibilityWind DirectionWind SpeedGust SpeedPrecipitationEventsConditions
1:00 AM-6.1 °C-8.9 °C74 %1029.8 hPa75.6 kmSSW (210°)11.1 km/hPartly Cloudy
1:00 AM-6 °C-9 °C80 %1029.8 hPaSSW (210°)13 km/hMostly Cloudy
2:00 AM-6 °C-8 °C86 %1029.5 hPa24.1 kmSW (220°)9.3 km/hOvercast
3:00 AM-6 °C-8 °C86 %1029.1 hPa24.1 kmWSW (240°)11.1 km/hMostly Cloudy
4:00 AM-6 °C-8 °C86 %1028.8 hPa24.1 kmSSW (210°)3.7 km/hOvercast
5:00 AM-6 °C-8 °C86 %1029.1 hPa24.1 kmSW (220°)9.3 km/hScattered Clouds
6:00 AM-7 °C-9 °C86 %1029.8 hPa72.4 kmWSW (250°)11.1 km/hScattered Clouds
7:00 AM-6 °C-8 °C86 %1031.2 hPa24.1 kmWSW (240°)13 km/hMostly Cloudy
7:00 AM-5.6 °C-7.8 °C78 %1031.2 hPa24.1 kmWSW (240°)13 km/hMostly Cloudy
8:00 AM-5 °C-8 °C80 %1031.5 hPa24.1 kmNW (310°)5.6 km/hMostly Cloudy
9:00 AM-5 °C-7 °C86 %1030.8 hPa24.1 kmVariable7.4 km/hOvercast
10:00 AM-4 °C-7 °C80 %1030.8 hPa24.1 kmCalmOvercast
11:00 AM-3 °C-6 °C80 %1030.5 hPa24.1 kmSouth (170°)5.6 km/hOvercast
11:13 AM-3 °C-6 °C80 %1030.5 hPa24.1 kmSouth (170°)3.7 km/hSnowLight Snow
11:41 AM-3 °C-6 °C80 %1030.1 hPa24.1 kmSSE (150°)3.7 km/hOvercast
12:00 PM-3 °C-6 °C80 %1030.1 hPa24.1 kmSSE (150°)7.4 km/hOvercast
1:00 PM-1.1 °C-4.4 °C69 %1029.1 hPa24.1 kmESE (120°)5.6 km/hPartly Cloudy
1:00 PM-1 °C-5 °C75 %1029.1 hPa24.1 kmESE (120°)5.6 km/hMostly Cloudy
2:00 PM-1 °C-5 °C75 %1028.4 hPa24.1 kmEast (100°)9.3 km/hOvercast
3:00 PM0 °C-5 °C69 %1028.1 hPa24.1 kmESE (110°)11.1 km/hOvercast
4:00 PM-1 °C-6 °C69 %1027.1 hPa24.1 kmEast (80°)18.5 km/hOvercast
5:00 PM-1 °C-6 °C69 %1026.8 hPa24.1 kmEast (80°)13 km/hOvercast
6:00 PM-2 °C-6 °C74 %1026.1 hPa24.1 kmNE (50°)18.5 km/hOvercast
7:00 PM-2.2 °C-5.6 °C69 %1026.4 hPa24.1 kmNE (50°)11.1 km/hOvercast
7:00 PM-2 °C-6 °C74 %1026.4 hPa24.1 kmNE (40°)11.1 km/hOvercast
8:00 PM-2 °C-6 °C74 %1025.4 hPa24.1 kmNE (50°)18.5 km/hOvercast
9:00 PM-2 °C-6 °C74 %1025.1 hPa24.1 kmNE (50°)18.5 km/hOvercast
10:00 PM-3 °C-6 °C80 %1024.7 hPa24.1 kmNE (50°)18.5 km/hMostly Cloudy
11:00 PM-3 °C-6 °C80 %1024 hPa24.1 kmNE (40°)18.5 km/hOvercast
Hourly data recorded from CYUL, located 0 kilometers away from Montreal, Quebec







STORIES FROM OUR PARTNERS